Hourly Weather Roundup
Issued by NWS Central Illinois

Home | Current Version | Previous Version | Text Only | Print | Product List | Glossary On
Versions: 1 2 3 4 5 6 7 8 9 10 11 12 13 14 15 16 17 18 19 20 21 22 23 24 25 26 27 28 29 30 31 32 33 34 35 36 37 38 39 40 41 42 43 44 45 46 47 48 49 50
000
NZUS43 KILX 190010
HWRILX

AREA WEATHER ROUNDUP
NATIONAL WEATHER SERVICE, LINCOLN IL
700 PM CDT THU SEP 18 2014


CITY           SKY/WX    TMP DP  RH WIND       PRES   REMARKS
BLOOMINGTON    CLEAR     64  47  54 NE7       30.08S
CHAMPAIGN      CLEAR     63  48  58 NE6       30.07S
6HR MIN TEMP:  63; 6HR MAX TEMP:  73;

DECATUR        CLEAR     63  49  60 NE7       30.05S
6HR MIN TEMP:  63; 6HR MAX TEMP:  75;

FLORA          CLEAR     69  54  58 NE3       30.04R
6HR MIN TEMP:  69; 6HR MAX TEMP:  74;

GALESBURG      CLEAR     68  53  58 E5        30.07R
JACKSONVILLE   CLEAR     68  53  58 E5        30.05R
6HR MIN TEMP:  68; 6HR MAX TEMP:  78; 6HR PCP:  0.01;

LACON          CLEAR     65  51  60 E5        30.07R
6HR MIN TEMP:  65; 6HR MAX TEMP:  73;

LAWRENCEVILLE  CLEAR     65  55  70 NE7       30.04R
6HR MIN TEMP:  65; 6HR MAX TEMP:  76;

LITCHFIELD     CLEAR     66  56  69 CALM      30.04R
$$


CITY           SKY/WX    TMP DP  RH WIND       PRES   REMARKS
LINCOLN        CLEAR     65  49  56 NE3       30.03S
6HR MIN TEMP:  65; 6HR MAX TEMP:  76;

MACOMB         CLEAR     67  52  57 E5        30.07R
MATTOON        CLEAR     63  50  62 E3        30.04S
6HR MIN TEMP:  63; 6HR MAX TEMP:  74;

MT CARMEL AP   CLEAR     68  54  60 NE6       30.04R
OLNEY-NOBLE AP CLEAR     64  54  68 CALM      30.04R
PARIS          CLEAR     60  54  78 CALM      30.06S
6HR MIN TEMP:  60; 6HR MAX TEMP:  74;

PEORIA         CLEAR     68  48  48 E5        30.06S
6HR MIN TEMP:  68; 6HR MAX TEMP:  76;

PONTIAC        CLEAR     64  52  63 E3        30.08R
RANTOUL        CLEAR     67  44  43 NE3       30.08S
6HR MIN TEMP:  67; 6HR MAX TEMP:  75;

ROBINSON       CLEAR     66  56  68 E6        30.05R
6HR MIN TEMP:  66; 6HR MAX TEMP:  76;

SPRINGFIELD    CLEAR     67  52  58 NE6       30.04S
6HR MIN TEMP:  67; 6HR MAX TEMP:  77;

TAYLORVILLE    CLEAR     68  50  52 E5        30.04R
$$

...REGIONAL REPORTS...


CITY           SKY/WX    TMP DP  RH WIND       PRES   REMARKS
CHICAGO O`HARE PTCLDY    62  54  74 NE12      30.12S
KANKAKEE       CLEAR     62  54  76 NE6       30.10R
MOLINE         CLEAR     64  53  67 E7        30.06R
MOUNT VERNON   CLEAR     64  54  68 CALM      30.04R
PITTSFIELD     CLEAR     68  55  62 CALM      30.05R
QUINCY         CLEAR     70  52  52 E5        30.03S
ROCKFORD       PTCLDY    64  54  69 E7        30.12R
$$


CITY           SKY/WX    TMP DP  RH WIND       PRES   REMARKS
BURLINGTON     CLEAR     70  53  54 E5        30.05R
CEDAR RAPIDS   CLEAR     66  56  70 E6        30.05S
DES MOINES     PTCLDY    69  52  54 S7        30.02R
KIRKSVILLE     CLEAR     65  56  72 SE5       30.04R
OTTUMWA        CLEAR     67  54  63 S3        30.03S
ST LOUIS       PTCLDY    71  53  52 E6        30.03R
$$


CITY           SKY/WX    TMP DP  RH WIND       PRES   REMARKS
TERRE HAUTE    CLEAR     62  52  69 E3        30.05S
EVANSVILLE     CLEAR     68  54  60 NE7       30.02S
INDIANAPOLIS   CLEAR     67  46  47 E7        30.07R
LAFAYETTE      CLEAR     64  49  57 E8        30.07S
MADISON        PTCLDY    60  52  74 E6        30.12R
MILWAUKEE      MOCLDY    56  51  84 N6        30.15S
$$




USA.gov is the U.S. government's official web portal to all federal, state and local government web resources and services.